CW9386 Weather Reports


time (UTC)temp
F
wind
direction
speed
knots
gust
knots
rain 1hr
in
rain 24hr
in
rain mn
in
humidity
%
barometer
mb
20260902033715 83 159 0.9 1.7 0.00 0.00 0.00 32 1019.2
20260902032707 84 161 0.0 1.7 0.00 0.00 0.00 31 1019.1
20260902031659 84 165 0.9 1.7 0.00 0.00 0.00 31 1019.0
20260902030658 85 165 0.9 1.7 0.00 0.00 0.00 30 1018.7
20260902025708 85 165 0.0 1.7 0.00 0.00 0.00 30 1018.6
20260902024702 86 165 1.7 1.7 0.00 0.00 0.00 29 1018.5
20260902023700 86 360 0.9 1.7 0.00 0.00 0.00 29 1018.3
20260902022708 86 111 0.9 2.6 0.00 0.00 0.00 29 1018.1
20260902021705 86 111 0.0 1.7 0.00 0.00 0.00 28 1018.0
20260902020657 87 184 1.7 2.6 0.00 0.00 0.00 28 1018.0
20260902015711 87 183 1.7 2.6 0.00 0.00 0.00 28 1017.9
20260902014659 88 216 1.7 1.7 0.00 0.00 0.00 27 1017.6
20260902013701 88 232 1.7 3.5 0.00 0.00 0.00 27 1017.5
20260902011655 89 223 2.6 5.2 0.00 0.00 0.00 26 1017.6
20260902010710 89 247 2.6 7.0 0.00 0.00 0.00 26 1017.5
20260902005703 90 223 3.5 7.8 0.00 0.00 0.00 26 1017.6
20260902004703 90 237 1.7 5.2 0.00 0.00 0.00 26 1017.5
20260902003657 90 216 2.6 7.8 0.00 0.00 0.00 26 1017.5
20260902002708 90 264 5.2 9.6 0.00 0.00 0.00 26 1017.6
20260902001704 90 214 2.6 9.6 0.00 0.00 0.00 27 1017.6
20260902000657 91 242 5.2 10.4 0.00 0.00 0.00 26 1017.7
20260901234659 92 288 3.5 10.4 0.00 0.00 0.00 26 1017.7
20260901233656 92 246 5.2 7.8 0.00 0.00 0.00 26 1017.7
20260901232706 92 242 3.5 7.8 0.00 0.00 0.00 26 1017.6
20260901231659 92 238 6.1 9.6 0.00 0.00 0.00 27 1017.6
20260901230708 91 248 6.1 11.3 0.00 0.00 0.00 27 1017.5
20260901225701 91 243 6.1 9.6 0.00 0.00 0.00 27 1017.6
20260901224652 91 306 3.5 8.7 0.00 0.00 0.00 26 1017.5
20260901223708 91 220 2.6 10.4 0.00 0.00 0.00 26 1017.6
20260901222702 91 248 5.2 7.0 0.00 0.00 0.00 26 1017.7
20260901221704 92 240 3.5 9.6 0.00 0.00 0.00 26 1017.8
20260901220703 91 238 5.2 11.3 0.00 0.00 0.00 26 1017.7
20260901215658 91 262 6.1 7.8 0.00 0.00 0.00 26 1017.8
20260901214650 91 254 5.2 10.4 0.00 0.00 0.00 27 1017.8
20260901213707 91 254 4.3 9.6 0.00 0.00 0.00 27 1018.0
20260901212707 91 262 5.2 9.6 0.00 0.00 0.00 27 1018.0
20260901211656 92 248 6.1 8.7 0.00 0.00 0.00 27 1018.0
20260901210650 92 248 7.8 9.6 0.00 0.00 0.00 26 1018.0
20260901205707 92 212 3.5 8.7 0.00 0.00 0.00 26 1018.3
20260901204701 92 190 5.2 8.7 0.00 0.00 0.00 25 1019.3
20260901203649 93 173 1.7 7.8 0.00 0.00 0.00 25 1019.5
20260901202708 93 140 6.1 11.3 0.00 0.00 0.00 25 1019.5
20260901200656 93 249 6.1 11.3 0.00 0.00 0.00 26 1019.9
20260901194706 92 246 7.8 10.4 0.00 0.00 0.00 26 1020.0
20260901193657 92 258 3.5 10.4 0.00 0.00 0.00 27 1020.1
20260901192652 91 236 6.1 9.6 0.00 0.00 0.00 27 1020.3
20260901191705 91 316 6.1 9.6 0.00 0.00 0.00 27 1020.3
20260901185656 90 273 5.2 10.4 0.00 0.00 0.00 28 1020.6
20260901184653 90 140 3.5 8.7 0.00 0.00 0.00 27 1020.7
20260901183706 90 198 1.7 7.0 0.00 0.00 0.00 28 1020.7
20260901182655 89 281 4.3 10.4 0.00 0.00 0.00 28 1020.8
20260901180648 89 189 1.7 3.5 0.00 0.00 0.00 29 1020.9
20260901175701 88 170 2.6 6.1 0.00 0.00 0.00 31 1021.1
20260901174656 88 259 2.6 4.3 0.00 0.00 0.00 31 1021.2
20260901173652 87 22 0.9 5.2 0.00 0.00 0.00 32 1021.3
20260901172644 86 240 1.7 6.1 0.00 0.00 0.00 33 1021.3
20260901171654 86 271 1.7 4.3 0.00 0.00 0.00 33 1021.4
20260901170651 86 231 0.9 6.1 0.00 0.00 0.00 33 1021.4
20260901165648 85 98 1.7 5.2 0.00 0.00 0.00 35 1021.4
20260901164656 85 111 2.6 5.2 0.00 0.00 0.00 35 1021.3
20260901163654 84 77 1.7 4.3 0.00 0.00 0.00 38 1021.3
20260901162643 83 106 0.0 3.5 0.00 0.00 0.00 40 1021.3
20260901155653 81 102 0.9 2.6 0.00 0.00 0.00 41 1021.1
20260901154648 81 94 1.7 1.7 0.00 0.00 0.00 42 1021.0
20260901153701 79 355 0.9 2.6 0.00 0.00 0.00 45 1021.1
20260901151652 77 306 0.9 2.6 0.00 0.00 0.00 47 1021.1
20260901150642 76 334 0.0 1.7 0.00 0.00 0.00 50 1021.0
20260901145658 75 331 0.0 0.9 0.00 0.00 0.00 53 1021.1
20260901144651 74 76 0.0 1.7 0.00 0.00 0.00 55 1020.9
20260901143644 74 75 0.9 0.9 0.00 0.00 0.00 55 1021.0
20260901142640 73 75 0.0 2.6 0.00 0.00 0.00 56 1020.9
20260901141649 73 121 0.9 2.6 0.00 0.00 0.00 56 1020.8
20260901140659 73 105 2.6 3.5 0.00 0.00 0.00 56 1020.8
20260901135650 72 81 1.7 2.6 0.00 0.00 0.00 56 1020.6
20260901134644 72 86 1.7 4.3 0.00 0.00 0.00 56 1020.6
20260901133639 72 71 0.9 3.5 0.00 0.00 0.00 56 1020.5
20260901132656 72 95 2.6 5.2 0.00 0.00 0.00 56 1020.5
20260901131651 71 94 0.9 1.7 0.00 0.00 0.00 57 1020.4
20260901130641 71 94 0.9 1.7 0.00 0.00 0.00 57 1020.5
20260901125649 71 82 1.7 2.6 0.00 0.00 0.00 57 1020.2
20260901122651 71 135 1.7 2.6 0.00 0.00 0.00 57 1019.8
20260901121645 72 213 0.0 1.7 0.00 0.00 0.00 55 1019.8
20260901120641 72 219 0.0 1.7 0.00 0.00 0.00 54 1019.9
20260901115653 72 227 1.7 3.5 0.00 0.00 0.00 54 1019.8
20260901114645 72 252 2.6 3.5 0.00 0.00 0.00 55 1019.7
20260901113644 72 267 0.0 2.6 0.00 0.00 0.00 54 1019.4
20260901112653 73 5 0.9 0.9 0.00 0.00 0.00 54 1019.4
20260901111646 73 72 0.0 0.9 0.00 0.00 0.00 53 1019.4
20260901110646 73 77 0.0 2.6 0.00 0.00 0.00 54 1019.3
20260901105643 73 62 0.9 2.6 0.00 0.00 0.00 53 1019.2
20260901104642 74 51 1.7 3.5 0.00 0.00 0.00 52 1019.2
20260901103636 74 74 0.9 1.7 0.00 0.00 0.00 52 1019.4
20260901101639 74 80 1.7 2.6 0.00 0.00 0.00 51 1019.6
20260901100652 74 59 0.0 2.6 0.00 0.00 0.00 51 1019.5
20260901095652 74 59 0.9 3.5 0.00 0.00 0.00 51 1019.5
20260901094647 74 63 0.9 3.5 0.00 0.00 0.00 51 1019.6
20260901093641 74 39 1.7 3.5 0.00 0.00 0.00 51 1019.5
20260901092638 74 54 1.7 2.6 0.00 0.00 0.00 51 1019.5
20260901091639 74 69 1.7 4.3 0.00 0.00 0.00 52 1019.6
20260901090701 74 62 2.6 4.3 0.00 0.00 0.00 52 1019.8
20260901085700 74 65 2.6 7.0 0.00 0.00 0.00 52 1019.4
20260901084642 74 38 4.3 6.1 0.00 0.00 0.00 52 1019.4
20260901083650 74 36 2.6 7.0 0.00 0.00 0.00 53 1019.7
20260901082654 75 27 4.3 7.8 0.00 0.00 0.00 53 1019.6
20260901081648 75 22 4.3 9.6 0.00 0.00 0.00 54 1019.4
20260901080639 74 57 6.1 10.4 0.00 0.00 0.00 55 1019.4
20260901075637 74 44 4.3 8.7 0.00 0.00 0.00 56 1019.4
20260901074653 74 65 3.5 7.0 0.00 0.00 0.00 57 1019.5
20260901072635 75 38 5.2 7.8 0.00 0.00 0.00 59 1019.3
20260901071646 75 87 2.6 6.1 0.00 0.00 0.00 62 1019.8
20260901070637 77 55 4.3 7.0 0.00 0.00 0.00 56 1019.8
20260901065649 77 80 1.7 8.7 0.00 0.00 0.00 51 1020.2
20260901064636 77 349 2.6 7.8 0.00 0.00 0.00 45 1020.2
20260901063634 77 307 5.2 7.8 0.00 0.00 0.00 45 1020.2
20260901055646 77 339 5.2 10.4 0.00 0.00 0.00 47 1020.5
20260901054642 77 315 7.8 10.4 0.00 0.00 0.00 48 1020.2
20260901053637 77 337 2.6 8.7 0.00 0.00 0.00 50 1020.5
20260901052653 77 277 5.2 12.2 0.00 0.00 0.00 51 1020.9
20260901051643 77 296 5.2 13.9 0.00 0.00 0.00 51 1020.7
20260901045639 77 284 5.2 13.0 0.00 0.00 0.00 51 1021.3
20260901044646 78 225 7.0 10.4 0.00 0.00 0.00 50 1021.4
20260901043640 78 209 4.3 13.0 0.00 0.00 0.00 48 1021.1
20260901041641 78 233 7.0 13.9 0.00 0.00 0.00 47 1020.4
20260901040639 79 263 8.7 14.8 0.00 0.00 0.00 47 1020.3
20260901035634 79 183 5.2 10.4 0.00 0.00 0.00 47 1020.2
20260901034649 79 193 7.0 16.5 0.00 0.00 0.00 46 1020.0